Погода в Кебратах

Россия / Пермский край     60°22′09″N   54°12′48″E
темп.,
°C
ветер,
м/с
пор.,
м/с
влажн.,
%
обл.,
%
осадки,
мм/ч
давл.,
гПа
погр.,
м
19 мая, ср
ср1923:00+13в11655 0.0 102311
02:00+11юв22755 0.0 102332
05:00+10ююв2386100 0.0 102458
08:00+15ююв246653 0.0 1024271
11:00+20ю334932 0.0 10231052
14:00+23ю333619 0.0 10221543
17:00+24ю33325 0.0 10211542
20:00+21ююв25445 0.0 1021185
20 мая, чт
чт2023:00+15ю37625 0.0 1021109
02:00+13ююз24672 0.0 102175
05:00+12юз22734 0.0 102143
08:00+18юз24545 0.0 1021239
11:00+23ююз23360 0.0 10201241
14:00+26ююз23270 0.0 10191782
17:00+27ю33245 0.0 10171944
20:00+23ююв26392 0.0 1016171
21 мая, пт
пт2123:00+17ююв23545 0.0 101754
02:00+15ю28644 0.0 1016131
05:00+13ю27740 0.0 1016122
08:00+18ю37550 0.0 1016302
11:00+24ююв59360 0.0 10141674
14:00+26ю69290 0.0 10122407
17:00+26ю6836100 0.0 10113260
20:00+21ююз49595 0.1 10111177
22 мая, сб
сб2223:00+17ююз412654 0.1 1011611
02:00+15ю3117819 0.0 1011444
05:00+13ю39936 0.0 1012298
08:00+16юз4870100 0.0 1012685
11:00+18зюз475847 0.0 10121424
14:00+16з4873100 0.8 10141051
17:00+21з69305 0.8 10142815
20:00+19зсз49375 0.0 10141950
23 мая, вс
вс2323:00+12зюз310572 0.0 1016233
02:00+10зюз28665 0.0 1017157
05:00+9зюз28725 0.0 1019166
08:00+14юз375415 0.0 1019324
11:00+19зюз58365 0.0 10192213
14:00+22зюз47295 0.0 10182366
17:00+22зюз4629100 0.0 10182232
20:00+20з254086 0.0 1017150